Location: Newark
(43.4306°N, 0.3089°E)
Time: 23:29:53
(UTC+00:00)

Tiros 1 despin weight - All Passes

Search period start: 19 August 2019 00:00
Search period end: 29 August 2019 00:00
Orbit: 594 x 642 km, 48.2° (Epoch: 19 August)

Date Brightness Start Highest point End Pass type
(mag) Time Alt. Az. Time Alt. Az. Time Alt. Az.
19 Aug - 01:10:10 10° WSW 01:14:37 75° SSE 01:19:11 10° ENE visible
19 Aug - 02:52:01 10° W 02:56:25 49° N 03:00:53 10° ENE visible
19 Aug - 04:34:01 10° WNW 04:38:31 53° NNE 04:43:03 10° E visible
19 Aug - 06:15:39 10° WNW 06:20:13 63° SSW 06:24:49 10° SE daylight
19 Aug - 07:58:37 10° W 08:01:09 15° SW 08:03:41 10° SSW daylight
19 Aug - 23:46:00 10° SSW 23:49:57 32° SE 23:53:57 10° E visible
20 Aug - 01:26:48 10° WSW 01:31:16 73° NNW 01:35:50 10° ENE visible
20 Aug - 03:08:53 10° WNW 03:13:15 45° N 03:17:41 10° ENE visible
20 Aug - 04:50:41 10° WNW 04:55:16 69° NNE 04:59:54 10° ESE daylight
20 Aug - 06:32:27 10° WNW 06:36:41 37° SW 06:40:58 10° SSE daylight
20 Aug - 22:24:01 10° SSE 22:25:35 12° SE 22:27:09 10° ESE night (unlit)
21 Aug - 00:02:01 10° SW 00:06:23 56° SSE 00:10:49 10° ENE visible
21 Aug - 01:43:36 10° W 01:48:01 54° NNW 01:52:30 10° ENE visible
21 Aug - 03:25:41 10° WNW 03:30:05 48° N 03:34:33 10° E visible
21 Aug - 05:07:19 10° WNW 05:11:56 82° SSW 05:16:34 10° ESE daylight
21 Aug - 06:49:36 10° W 06:53:02 21° SW 06:56:30 10° S daylight
21 Aug - 22:38:21 10° S 22:41:49 22° SE 22:45:18 10° E night (unlit)
22 Aug - 00:18:29 10° WSW 00:22:57 89° SE 00:27:30 10° ENE visible
22 Aug - 02:00:28 10° W 02:04:49 46° N 02:09:15 10° ENE visible
22 Aug - 03:42:23 10° WNW 03:46:53 58° NNE 03:51:26 10° E visible
22 Aug - 05:24:02 10° WNW 05:28:29 50° SSW 05:32:58 10° SE daylight
22 Aug - 07:08:16 10° WSW 07:09:16 11° SW 07:10:16 10° SW daylight
22 Aug - 22:54:02 10° SSW 22:58:10 40° SE 23:02:23 10° ENE night (unlit)
23 Aug - 00:35:12 10° W 00:39:38 63° NNW 00:44:09 10° ENE visible
23 Aug - 02:17:18 10° WNW 02:21:40 45° N 02:26:04 10° ENE visible
23 Aug - 03:59:02 10° WNW 04:03:36 79° NNE 04:08:14 10° ESE visible
23 Aug - 05:40:57 10° W 05:44:54 29° SW 05:48:53 10° SSE daylight
23 Aug - 21:31:06 10° S 21:33:44 16° SE 21:36:23 10° E night (unlit)
23 Aug - 23:10:16 10° SW 23:14:41 69° SSE 23:19:09 10° ENE night (unlit)
24 Aug - 00:52:03 10° W 00:56:24 50° N 01:00:50 10° ENE visible
24 Aug - 02:34:04 10° WNW 02:38:29 51° N 02:42:57 10° E visible
24 Aug - 04:15:41 10° WNW 04:20:13 68° SSW 04:24:48 10° SE visible
24 Aug - 05:58:25 10° W 06:01:12 16° SW 06:03:59 10° S daylight
24 Aug - 21:46:13 10° SSW 21:50:01 29° SE 21:53:52 10° E night (unlit)
24 Aug - 23:26:51 10° WSW 23:31:17 77° NNW 23:35:48 10° ENE night (unlit)
25 Aug - 01:08:55 10° WNW 01:13:14 45° N 01:17:37 10° ENE visible
25 Aug - 02:50:45 10° WNW 02:55:15 65° NNE 02:59:49 10° E visible
25 Aug - 04:32:27 10° WNW 04:36:43 40° SW 04:41:01 10° SSE visible
25 Aug - 20:25:07 10° SE 20:25:41 10° SE 20:26:17 10° ESE night (unlit)
25 Aug - 22:02:09 10° SW 22:06:26 51° SSE 22:10:46 10° ENE night (unlit)
25 Aug - 23:43:38 10° W 23:48:01 56° NNW 23:52:27 10° ENE night (unlit)
26 Aug - 01:25:44 10° WNW 01:30:04 47° N 01:34:28 10° E visible
26 Aug - 03:07:22 10° WNW 03:11:56 87° SSW 03:16:32 10° ESE visible
26 Aug - 04:49:32 10° W 04:53:05 22° SW 04:56:39 10° S daylight
26 Aug - 20:38:39 10° S 20:41:54 20° SE 20:45:11 10° E visible
26 Aug - 22:18:33 10° WSW 22:22:59 84° SSE 22:27:29 10° ENE night (unlit)
27 Aug - 00:00:30 10° W 00:04:49 47° N 00:09:11 10° ENE night (unlit)
27 Aug - 01:42:26 10° WNW 01:46:52 55° NNE 01:51:21 10° E visible
27 Aug - 03:24:04 10° WNW 03:28:30 54° SSW 03:32:58 10° SE visible
27 Aug - 05:07:42 10° WSW 05:09:19 12° SW 05:10:57 10° SSW daylight
27 Aug - 20:54:12 10° SSW 20:58:14 37° SE 21:02:20 10° ENE visible
27 Aug - 22:35:14 10° WSW 22:39:39 66° NNW 22:44:07 10° ENE night (unlit)
28 Aug - 00:17:21 10° WNW 00:21:39 45° N 00:26:00 10° ENE night (unlit)
28 Aug - 01:59:05 10° WNW 02:03:35 75° NNE 02:08:10 10° ESE visible
28 Aug - 03:40:56 10° W 03:44:56 31° SW 03:48:58 10° SSE visible
28 Aug - 19:31:32 10° SSE 19:33:49 14° SE 19:36:08 10° ESE visible
28 Aug - 21:10:21 10° SW 21:14:43 64° SSE 21:19:08 10° ENE visible
28 Aug - 22:52:04 10° W 22:56:24 51° N 23:00:47 10° ENE night (unlit)
